SCP
0 0 0 0 0 0 0 0 0 0 0 0 0 0 0 0 0 0 0 0 0 0 0 0 0 0 0 0 0 0 0 0 0
0 0 0 0 0 0 0 0 0 0 0 0 0 0 0 0 0 0 0 0 0 0 0 0 0 0 0 0 0 0 0 0 0
0 0 0 0 0 0 0 0 0 0 0 0 0 0 0 0 0 0 0 0 0 0 0 0 0 0 0 0 0 0 0 0 0
0 0 0 0 0 0 0 0 0 0 0 0 0 0 0 0 0 0 0 0 0 0 0 0 0 0 0 0 0 0 0 0 0
0 0 0 0 0 0 0 0 0 0 0 0 0 0 0 0 0 0 0 0 0 0 0 0 0 0 0 0 0 0 0 0 0
0 0 0 0 0 0 0 0 0 0 0 0 0 0 0 0 0 0 0 0 0 0 0 0 0 0 1 0 0 1 1 1 0
0 0 0 0 0 0 0 0 0 0 0 0 0 0 0 0 0 0 0 0 0 0 0 1 1 1 1 1 1 1 1 1 0
0 0 0 0 0 0 0 0 0 0 0 0 0 0 0 0 0 0 0 0 0 0 1 1 1 1 1 1 1 1 1 1 0
0 0 0 0 0 0 0 0 0 0 0 0 0 0 0 0 0 0 0 0 0 0 0 1 1 1 1 1 1 1 1 1 1
0 0 0 0 0 0 0 0 0 0 0 0 0 0 0 0 0 0 0 0 0 0 0 0 1 1 1 1 1 1 1 1 1
0 0 0 0 0 0 0 0 0 0 0 0 0 0 0 0 0 0 0 0 0 0 0 0 0 1 1 1 1 1 1 0 0
0 0 0 0 0 0 0 0 0 0 0 0 0 0 0 0 0 0 0 0 0 0 0 0 0 0 0 1 0 1 1 0 1
0 0 0 0 0 0 0 0 0 0 0 0 0 0 0 0 0 0 0 0 0 0 0 0 0 0 0 0 0 0 0 1 1
0 0 0 0 0 0 0 0 0 0 0 0 0 0 0 0 0 0 0 0 0 0 0 0 0 0 0 0 0 0 0 0 0
0 0 0 0 0 0 0 0 0 0 0 0 0 0 0 0 0 0 0 0 0 0 0 0 0 0 0 0 0 0 0 0 0
0 0 0 0 0 0 0 0 0 0 0 0 0 0 -0 0 0 0 0 0 0 0 0 0 0 0 0 0 0 0 0 0 0
0 0 0 0 0 0 0 0 0 0 0 0 0 0 -0 0 0 0 0 0 0 0 0 0 0 0 0 0 0 0 0 0 0
0 0 0 0 0 0 0 0 0 0 0 0 0 0 0 -0 0 0 0 0 -0 0 0 0 0 0 0 0 0 -0 0 0 0
0 0 0 0 0 0 0 0 0 0 0 0 0 0 0 0 -0 0 0 0 -0 -0 0 0 0 0 0 0 0 0 0 0 -0
0 0 0 0 0 0 0 0 0 0 0 0 0 0 0 0 0 -0 0 0 0 -0 0 0 0 0 0 0 0 0 -0 0 0
Wind_Speed_500mb
28 28 29 30 31 35 39 40 40 40 37 34 36 40 40 38 42 42 41 44 43 42 43 43 44 43 42 41 43 43 43 41 42
33 33 34 34 34 35 37 40 42 45 47 45 43 38 42 44 46 49 49 47 45 46 47 48 47 46 49 48 49 48 47 47 50
38 38 38 39 40 39 40 42 44 46 48 50 54 56 53 49 51 53 54 55 52 52 52 53 51 54 53 54 53 52 51 53 58
40 41 43 44 45 47 48 48 49 49 50 51 54 54 56 58 54 58 60 59 58 59 59 58 57 51 56 58 59 60 57 60 64
41 44 45 47 48 49 51 53 54 55 54 55 56 56 57 58 63 63 63 64 59 62 62 63 64 59 58 62 67 67 65 64 70
49 50 52 53 54 55 55 55 56 57 58 58 59 60 60 60 60 67 69 70 62 62 65 65 67 64 61 62 74 75 75 73 76
52 51 52 53 55 57 59 60 61 61 62 62 61 61 62 63 63 63 68 75 72 63 66 67 71 70 66 63 76 85 86 83 82
57 60 62 64 66 67 68 68 67 67 69 69 67 66 66 67 67 66 65 70 80 72 65 71 74 76 70 66 76 93 94 86 81
57 60 64 68 71 73 75 76 76 74 72 70 71 70 69 68 70 70 68 67 71 83 77 68 74 79 77 71 76 90 103 87 82
65 67 69 71 73 76 78 79 80 79 78 76 73 70 72 69 69 71 70 70 71 73 82 84 77 77 81 87 86 88 94 83 86
68 71 73 73 72 72 75 77 79 80 80 79 74 73 71 71 70 68 70 69 72 72 72 77 88 81 82 88 100 102 91 86 82
69 69 66 66 67 68 71 74 77 79 81 82 80 75 71 71 69 67 65 65 66 73 70 69 76 86 95 90 101 96 93 84 96
66 64 63 64 65 67 68 71 74 76 77 82 83 81 76 70 67 65 61 57 57 63 71 67 69 75 79 101 106 70 58 87 84
66 67 67 67 67 67 69 70 71 75 78 80 83 81 77 72 65 58 54 58 65 64 65 70 65 66 71 85 77 56 97 107 120
65 65 64 63 63 63 64 65 65 67 72 79 83 83 74 66 58 47 44 44 60 56 63 62 66 58 58 69 79 79 73 113 91
66 65 65 62 61 61 59 61 61 60 58 68 77 79 63 45 44 33 28 38 43 35 45 52 52 53 54 63 68 74 66 108 55
65 66 66 63 62 60 58 56 58 45 47 44 54 39 63 19 28 31 33 35 35 24 24 30 37 42 52 59 62 73 82 93 83
62 62 62 60 58 59 55 53 52 52 47 40 26 25 19 66 39 37 41 39 51 44 32 24 33 38 38 56 56 65 63 83 75
63 62 60 59 58 57 56 52 52 54 47 39 29 34 44 32 52 37 62 52 45 51 45 36 25 32 48 43 52 63 60 56 65
66 63 60 57 55 57 56 54 51 49 45 39 36 37 36 38 46 65 51 53 42 45 46 52 30 28 29 45 52 58 60 62 61
Wind_Direction_500mb
354 346 338 329 321 309 303 300 296 295 293 289 295 286 284 277 275 272 268 263 260 255 253 252 248 244 241 236 228 225 222 214 208
352 348 343 338 331 323 315 308 302 294 289 286 280 280 278 274 271 271 269 264 261 255 250 249 250 252 243 236 233 226 222 215 207
343 340 336 332 328 324 321 317 313 307 301 293 284 279 279 275 269 268 268 264 261 258 253 249 249 257 240 235 234 224 217 216 206
334 331 329 326 324 323 321 317 314 311 309 305 297 292 281 275 273 268 266 266 262 259 256 250 249 249 245 238 232 220 217 214 203
329 326 324 322 320 318 316 314 312 309 306 304 301 298 290 282 272 269 266 264 263 258 256 251 248 248 247 244 231 217 214 209 199
331 329 325 321 318 316 314 312 309 306 303 301 298 295 294 289 281 271 266 263 262 259 255 249 247 249 248 242 230 219 211 208 201
330 326 324 322 319 316 313 310 307 305 303 300 295 293 289 286 285 278 269 263 261 259 256 249 244 247 248 244 231 218 211 212 210
323 322 321 319 317 315 313 313 312 310 306 301 299 296 293 289 284 280 274 266 262 258 255 251 244 245 246 244 228 218 214 209 212
327 326 324 322 320 317 315 312 310 307 305 304 299 295 293 290 287 282 277 271 266 261 254 250 247 244 245 241 229 222 215 206 217
327 324 322 319 315 312 309 307 306 304 302 300 298 296 289 288 287 284 278 273 270 267 259 251 247 243 244 240 233 228 197 205 215
324 321 319 315 312 309 307 306 305 303 301 299 296 294 293 288 284 285 282 275 270 268 266 257 250 246 242 242 240 233 229 228 218
324 321 320 319 317 315 311 308 306 305 303 300 297 294 290 288 287 282 281 278 273 268 267 264 254 251 248 244 246 215 220 227 236
325 325 325 323 320 319 315 312 310 307 305 303 301 298 294 290 286 284 276 277 280 276 266 266 260 255 253 253 255 244 256 233 238
329 330 328 325 322 319 317 315 312 310 308 306 303 302 298 293 290 287 280 278 281 281 274 263 263 261 249 252 255 256 233 249 276
329 327 326 323 320 318 316 313 311 309 309 306 304 302 302 298 292 279 280 286 280 277 273 268 264 266 253 251 249 260 251 244 247
331 330 328 326 323 320 319 316 314 312 311 312 307 305 309 306 282 269 276 276 275 286 285 272 266 264 263 252 248 258 242 234 284
331 328 327 326 323 322 320 318 315 312 316 316 319 318 319 271 272 278 284 279 264 266 307 284 265 272 266 254 253 247 245 241 274
325 325 324 322 320 318 318 315 311 308 309 309 301 312 298 316 312 276 293 286 291 278 311 285 276 257 266 263 267 245 239 234 264
327 325 322 320 318 317 316 314 308 303 301 302 294 279 284 298 308 297 303 311 297 287 289 318 315 273 273 271 252 241 235 234 247
327 324 322 319 316 313 312 312 309 302 297 294 295 291 292 285 276 293 306 296 298 310 281 307 313 321 283 261 268 236 234 235 233
Wind_Speed_850mb
28 28 29 30 31 35 39 40 40 40 37 34 36 40 40 38 42 42 41 44 43 42 43 43 44 43 42 41 43 43 43 41 42
33 33 34 34 34 35 37 40 42 45 47 45 43 38 42 44 46 49 49 47 45 46 47 48 47 46 49 48 49 48 47 47 50
38 38 38 39 40 39 40 42 44 46 48 50 54 56 53 49 51 53 54 55 52 52 52 53 51 54 53 54 53 52 51 53 58
40 41 43 44 45 47 48 48 49 49 50 51 54 54 56 58 54 58 60 59 58 59 59 58 57 51 56 58 59 60 57 60 64
41 44 45 47 48 49 51 53 54 55 54 55 56 56 57 58 63 63 63 64 59 62 62 63 64 59 58 62 67 67 65 64 70
49 50 52 53 54 55 55 55 56 57 58 58 59 60 60 60 60 67 69 70 62 62 65 65 67 64 61 62 74 75 75 73 76
52 51 52 53 55 57 59 60 61 61 62 62 61 61 62 63 63 63 68 75 72 63 66 67 71 70 66 63 76 85 86 83 82
57 60 62 64 66 67 68 68 67 67 69 69 67 66 66 67 67 66 65 70 80 72 65 71 74 76 70 66 76 93 94 86 81
57 60 64 68 71 73 75 76 76 74 72 70 71 70 69 68 70 70 68 67 71 83 77 68 74 79 77 71 76 90 103 87 82
65 67 69 71 73 76 78 79 80 79 78 76 73 70 72 69 69 71 70 70 71 73 82 84 77 77 81 87 86 88 94 83 86
68 71 73 73 72 72 75 77 79 80 80 79 74 73 71 71 70 68 70 69 72 72 72 77 88 81 82 88 100 102 91 86 82
69 69 66 66 67 68 71 74 77 79 81 82 80 75 71 71 69 67 65 65 66 73 70 69 76 86 95 90 101 96 93 84 96
66 64 63 64 65 67 68 71 74 76 77 82 83 81 76 70 67 65 61 57 57 63 71 67 69 75 79 101 106 70 58 87 84
66 67 67 67 67 67 69 70 71 75 78 80 83 81 77 72 65 58 54 58 65 64 65 70 65 66 71 85 77 56 97 107 120
65 65 64 63 63 63 64 65 65 67 72 79 83 83 74 66 58 47 44 44 60 56 63 62 66 58 58 69 79 79 73 113 91
66 65 65 62 61 61 59 61 61 60 58 68 77 79 63 45 44 33 28 38 43 35 45 52 52 53 54 63 68 74 66 108 55
65 66 66 63 62 60 58 56 58 45 47 44 54 39 63 19 28 31 33 35 35 24 24 30 37 42 52 59 62 73 82 93 83
62 62 62 60 58 59 55 53 52 52 47 40 26 25 19 66 39 37 41 39 51 44 32 24 33 38 38 56 56 65 63 83 75
63 62 60 59 58 57 56 52 52 54 47 39 29 34 44 32 52 37 62 52 45 51 45 36 25 32 48 43 52 63 60 56 65
66 63 60 57 55 57 56 54 51 49 45 39 36 37 36 38 46 65 51 53 42 45 46 52 30 28 29 45 52 58 60 62 61
Wind_Direction_850mb
354 346 338 329 321 309 303 300 296 295 293 289 295 286 284 277 275 272 268 263 260 255 253 252 248 244 241 236 228 225 222 214 208
352 348 343 338 331 323 315 308 302 294 289 286 280 280 278 274 271 271 269 264 261 255 250 249 250 252 243 236 233 226 222 215 207
343 340 336 332 328 324 321 317 313 307 301 293 284 279 279 275 269 268 268 264 261 258 253 249 249 257 240 235 234 224 217 216 206
334 331 329 326 324 323 321 317 314 311 309 305 297 292 281 275 273 268 266 266 262 259 256 250 249 249 245 238 232 220 217 214 203
329 326 324 322 320 318 316 314 312 309 306 304 301 298 290 282 272 269 266 264 263 258 256 251 248 248 247 244 231 217 214 209 199
331 329 325 321 318 316 314 312 309 306 303 301 298 295 294 289 281 271 266 263 262 259 255 249 247 249 248 242 230 219 211 208 201
330 326 324 322 319 316 313 310 307 305 303 300 295 293 289 286 285 278 269 263 261 259 256 249 244 247 248 244 231 218 211 212 210
323 322 321 319 317 315 313 313 312 310 306 301 299 296 293 289 284 280 274 266 262 258 255 251 244 245 246 244 228 218 214 209 212
327 326 324 322 320 317 315 312 310 307 305 304 299 295 293 290 287 282 277 271 266 261 254 250 247 244 245 241 229 222 215 206 217
327 324 322 319 315 312 309 307 306 304 302 300 298 296 289 288 287 284 278 273 270 267 259 251 247 243 244 240 233 228 197 205 215
324 321 319 315 312 309 307 306 305 303 301 299 296 294 293 288 284 285 282 275 270 268 266 257 250 246 242 242 240 233 229 228 218
324 321 320 319 317 315 311 308 306 305 303 300 297 294 290 288 287 282 281 278 273 268 267 264 254 251 248 244 246 215 220 227 236
325 325 325 323 320 319 315 312 310 307 305 303 301 298 294 290 286 284 276 277 280 276 266 266 260 255 253 253 255 244 256 233 238
329 330 328 325 322 319 317 315 312 310 308 306 303 302 298 293 290 287 280 278 281 281 274 263 263 261 249 252 255 256 233 249 276
329 327 326 323 320 318 316 313 311 309 309 306 304 302 302 298 292 279 280 286 280 277 273 268 264 266 253 251 249 260 251 244 247
331 330 328 326 323 320 319 316 314 312 311 312 307 305 309 306 282 269 276 276 275 286 285 272 266 264 263 252 248 258 242 234 284
331 328 327 326 323 322 320 318 315 312 316 316 319 318 319 271 272 278 284 279 264 266 307 284 265 272 266 254 253 247 245 241 274
325 325 324 322 320 318 318 315 311 308 309 309 301 312 298 316 312 276 293 286 291 278 311 285 276 257 266 263 267 245 239 234 264
327 325 322 320 318 317 316 314 308 303 301 302 294 279 284 298 308 297 303 311 297 287 289 318 315 273 273 271 252 241 235 234 247
327 324 322 319 316 313 312 312 309 302 297 294 295 291 292 285 276 293 306 296 298 310 281 307 313 321 283 261 268 236 234 235 233